Location: Cudham
(51.3000°N, 0.0667°E)
Time: 23:31:05
(UTC+00:00)

Cosmos 2221 - Visible Passes

Search period start: 11 April 2026 00:00
Search period end: 21 April 2026 00:00
Orbit: 567 x 589 km, 82.5° (Epoch: 11 April)

Date Brightness Start Highest point End Pass type
(mag) Time Alt. Az. Time Alt. Az. Time Alt. Az.
11 Apr 2.9 03:28:58 10° S 03:33:02 58° E 03:37:07 10° NNE visible
12 Apr 2.5 03:33:40 12° S 03:37:31 78° E 03:41:40 10° NNE visible
13 Apr 5.2 02:04:00 10° ESE 02:05:37 12° E 02:07:15 10° ENE visible
13 Apr 2.3 03:38:29 14° SSW 03:42:00 79° W 03:46:10 10° N visible
14 Apr 5.0 02:07:28 10° ESE 02:09:58 16° E 02:12:28 10° NE visible
14 Apr 2.5 03:43:14 15° SSW 03:46:30 59° WNW 03:50:37 10° N visible
15 Apr 4.7 02:11:38 12° SE 02:14:20 20° E 02:17:23 10° NE visible
15 Apr 2.8 03:47:57 16° SW 03:51:03 45° WNW 03:55:02 10° N visible
16 Apr 4.3 02:16:20 16° SE 02:18:42 26° E 02:22:09 10° NNE visible
16 Apr 3.2 03:52:39 15° SW 03:55:35 34° WNW 03:59:24 10° N visible
17 Apr 3.8 02:20:59 21° SE 02:23:05 34° E 02:26:50 10° NNE visible
17 Apr 3.5 03:57:18 14° WSW 04:00:10 27° WNW 04:03:43 10° N visible
18 Apr 3.3 02:25:37 26° SSE 02:27:30 44° E 02:31:27 10° NNE visible
18 Apr 3.9 04:01:56 12° WSW 04:04:45 21° WNW 04:07:58 10° NNW visible
19 Apr 2.8 02:30:14 32° SSE 02:31:56 59° E 02:36:01 10° NNE visible
19 Apr 4.2 04:06:37 10° WSW 04:09:22 17° WNW 04:12:07 10° NNW visible
20 Apr 2.4 02:34:48 37° S 02:36:23 79° E 02:40:32 10° NNE visible
20 Apr 4.5 04:11:55 10° W 04:13:59 13° WNW 04:16:05 10° NNW visible
